This is the latest recevied weather packets stored in our database for station/object S59EHI-8. If no packets are shown the sender has not sent any weather packets the latest 10 day(s).
| Time | Temp. | Humidity | Pressure | Rain* | Wind** | Luminosity | Snow |
|---|---|---|---|---|---|---|---|
| 1777919411 | 23.33° C | 26% | 1015.3 hPa | - | - | - | - |
| 1777918211 | 23.33° C | 26% | 1015.1 hPa | - | - | - | - |
| 1777914071 | 23.89° C | 26% | 1014.6 hPa | - | - | - | - |
| 1777912811 | 23.89° C | 25% | 1014.6 hPa | - | - | - | - |
| 1777906211 | 25° C | 23% | 1014.8 hPa | - | - | - | - |
| 1777901471 | 25° C | 26% | 1015 hPa | - | - | - | - |
| 1777900811 | 25° C | 26% | 1015.1 hPa | - | - | - | - |
| 1777900211 | 25° C | 26% | 1015.1 hPa | - | - | - | - |
| 1777897811 | 23.89° C | 27% | 1015.7 hPa | - | - | - | - |
| 1777897211 | 23.89° C | 28% | 1015.9 hPa | - | - | - | - |
| 1777896611 | 24.44° C | 27% | 1015.9 hPa | - | - | - | - |
| 1777896071 | 24.44° C | 28% | 1016 hPa | - | - | - | - |
| 1777895470 | 24.44° C | 28% | 1016.1 hPa | - | - | - | - |
| 1777894871 | 23.89° C | 29% | 1016.3 hPa | - | - | - | - |
| 1777894271 | 23.89° C | 29% | 1016.4 hPa | - | - | - | - |
| 1777893671 | 23.89° C | 30% | 1016.4 hPa | - | - | - | - |
| 1777893071 | 23.89° C | 29% | 1016.7 hPa | - | - | - | - |
| 1777892471 | 24.44° C | 30% | 1016.9 hPa | - | - | - | - |
| 1777891871 | 23.89° C | 29% | 1017.1 hPa | - | - | - | - |
| 1777890671 | 23.33° C | 29% | 1017.4 hPa | - | - | - | - |
| 1777890011 | 23.33° C | 29% | 1017.4 hPa | - | - | - | - |
| 1777889411 | 23.33° C | 29% | 1017.7 hPa | - | - | - | - |
| 1777888811 | 23.33° C | 29% | 1017.8 hPa | - | - | - | - |
| 1777888211 | 23.89° C | 28% | 1018 hPa | - | - | - | - |
| 1777887611 | 23.89° C | 29% | 1018.1 hPa | - | - | - | - |
* Rain since midnight (hover to see other rain measurements)
** Current wind speed in m/s (hover to see current wind gust speed)